RH
27 27 27 27 26 26 26 24 23 21 19 18 16 14 12 11 10 9 9 9 10 10 11 11 12 13 14 15 16 16 17 17 18 18 18 18 18 18 18 18 17 17 17 16 16 15 15 15 14 14 14 14 13 13 13 13 13 13 13 13 13 13 13 13 13 13 13 13 13 13 13 14 14 14 14 14 14 14 15 15 15 15 15 15 15 15
27 27 27 26 25 24 23 20 18 17 15 13 11 10 9 8 8 8 8 9 9 10 11 12 12 13 14 15 16 16 17 17 17 17 16 16 16 16 15 15 14 14 14 13 13 13 13 13 13 13 13 13 13 13 13 13 13 13 14 14 14 14 14 14 15 15 15 16 16 16 16 17 17 17 17 18 18 18 18 18 18 18 18 19 19 19
26 26 25 23 22 20 18 16 14 12 10 9 9 8 8 8 8 8 9 9 10 10 11 11 12 13 13 14 14 14 14 14 14 14 14 13 13 13 12 12 12 12 12 12 12 12 12 13 13 13 13 14 14 14 15 15 16 16 17 17 17 17 18 18 18 19 19 20 20 20 21 21 21 22 22 22 22 22 22 23 23 23 23 23 23 23
24 23 21 18 17 15 13 11 10 9 8 8 8 8 8 8 9 9 9 9 10 10 10 11 11 11 12 12 12 12 11 11 11 11 11 10 10 10 10 10 11 11 11 12 12 13 13 14 14 15 16 16 17 17 18 18 19 20 20 20 21 21 21 22 23 23 24 24 25 25 26 26 26 26 26 27 27 27 27 27 28 28 29 29 29 29
19 17 15 13 12 10 9 9 8 8 8 8 9 9 9 9 9 9 9 10 10 10 10 10 10 10 10 10 9 9 9 9 8 8 8 8 9 9 10 10 11 11 12 13 13 14 15 16 16 17 18 19 19 20 21 21 22 23 24 24 24 25 26 26 27 28 28 29 30 30 30 31 31 31 31 31 32 32 32 33 33 34 34 34 34 34
14 12 11 10 9 9 9 9 9 9 9 9 9 9 9 9 9 9 9 9 9 9 9 8 8 8 8 7 7 7 7 7 7 8 8 9 9 10 10 11 12 13 14 14 15 16 17 17 18 19 19 20 21 22 23 24 25 26 26 27 28 29 30 31 31 32 33 34 34 35 35 35 35 35 35 36 36 36 37 37 37 38 38 37 37 36
10 10 9 9 9 9 9 9 9 9 8 8 8 8 8 8 8 8 8 8 7 7 7 7 7 6 7 7 7 7 8 8 9 9 9 10 11 11 12 13 14 15 15 16 17 17 18 18 19 19 20 21 22 23 24 26 27 28 29 30 30 32 33 34 34 35 36 36 37 37 37 37 37 38 38 38 38 38 38 38 38 38 38 37 36 35
9 9 9 9 9 9 9 8 8 7 7 7 7 7 7 6 6 6 6 6 6 6 6 6 6 7 7 8 8 9 9 10 10 11 11 11 12 13 13 14 15 16 17 17 18 18 18 18 19 19 20 21 22 23 24 25 27 28 29 30 31 32 33 34 35 35 36 37 37 37 37 37 37 37 37 37 37 37 37 36 36 35 35 34 33 32
9 10 10 9 9 8 7 7 6 6 6 6 5 5 5 5 5 5 5 5 6 6 6 7 7 8 9 9 10 10 11 11 12 12 12 13 13 14 15 16 16 17 17 18 18 18 18 18 18 19 19 20 21 22 23 24 25 26 28 29 30 31 32 33 33 34 34 35 35 35 35 35 34 34 34 34 34 34 34 34 33 33 33 32 31 31
10 9 8 8 7 6 6 5 5 5 5 5 5 5 5 5 5 5 6 6 7 7 8 9 9 10 10 10 11 12 12 13 13 14 14 14 15 15 16 17 17 18 18 18 18 18 18 18 18 18 19 20 21 21 22 23 24 25 26 27 28 29 30 31 31 32 32 32 33 33 33 33 32 32 33 33 33 33 34 34 34 34 34 34 34 34
8 7 6 6 5 5 4 4 4 4 4 4 4 5 5 5 6 6 7 7 8 9 9 10 10 11 12 12 13 13 14 14 15 15 16 16 16 17 18 18 19 19 19 19 19 19 19 19 19 19 20 21 22 23 23 24 24 25 25 26 27 28 29 30 30 31 32 32 33 33 33 34 34 34 35 35 36 37 38 39 39 39 39 39 38 38
6 5 5 4 4 4 4 4 4 4 4 5 5 6 6 7 7 8 8 9 9 10 10 11 12 13 14 14 15 16 16 17 17 18 18 19 19 20 20 20 21 21 21 21 21 21 22 22 22 22 22 23 24 25 26 26 26 27 27 28 29 30 31 31 32 33 34 35 36 37 37 38 39 39 40 41 43 43 44 45 45 45 44 43 43 43
5 4 4 4 4 4 4 4 4 5 5 5 6 7 7 7 8 9 9 10 11 11 12 13 14 16 17 17 18 19 19 20 20 21 21 22 23 23 23 24 24 24 24 24 24 24 24 24 24 23 24 25 26 27 28 28 29 29 30 31 32 33 34 35 36 37 38 40 41 42 43 43 44 45 46 47 48 49 50 50 49 49 48 47 47 47
4 4 4 4 4 4 4 4 5 5 6 6 7 7 7 8 9 10 11 12 13 14 15 16 17 18 19 20 21 22 23 23 24 24 25 26 26 27 27 27 27 27 27 26 26 26 25 25 24 24 24 24 25 26 27 28 29 29 31 32 34 35 37 38 39 41 42 44 45 46 46 47 48 48 49 50 50 51 52 51 51 50 49 49 49 50
4 3 4 4 4 4 5 5 6 6 6 7 7 8 9 10 11 12 14 15 16 17 18 19 20 21 22 23 24 25 25 26 27 28 29 30 30 30 30 30 29 29 28 27 26 26 25 24 23 23 23 23 23 24 25 25 26 27 29 31 33 36 38 39 41 43 45 46 47 47 48 48 48 49 49 50 51 51 52 51 51 50 50 51 51 52
3 4 4 4 4 5 5 6 6 6 7 7 8 10 11 12 14 15 17 18 18 19 19 20 21 22 24 25 26 27 27 28 29 31 32 33 33 32 32 31 31 30 28 27 26 24 24 23 23 23 23 23 23 23 23 23 24 25 27 29 31 34 36 38 41 43 45 46 47 47 47 47 47 48 48 49 50 50 51 51 51 51 51 52 53 55
4 4 4 4 5 5 6 6 6 7 8 9 11 13 15 16 17 18 19 19 20 20 21 21 22 23 25 27 28 29 30 31 32 34 35 35 34 33 32 31 29 28 26 25 24 23 22 22 23 23 23 24 24 24 24 24 25 26 27 28 30 32 34 36 39 42 44 45 45 45 45 45 46 46 47 48 49 50 50 51 51 52 53 55 56 57
4 4 5 5 5 6 6 7 8 9 10 12 15 16 18 19 20 20 20 20 21 21 22 23 24 26 27 29 30 31 32 33 34 35 35 35 34 32 30 28 26 25 23 22 21 21 21 22 23 24 25 25 26 26 26 27 28 28 29 29 30 32 34 37 39 41 43 43 43 44 44 44 44 45 46 47 49 50 51 51 53 54 57 58 58 58
4 5 5 5 6 6 7 9 10 12 14 16 18 19 20 21 21 21 21 21 22 23 25 26 28 29 30 32 32 33 33 33 34 33 33 31 29 27 26 24 22 21 20 20 20 21 22 23 24 25 26 27 28 28 29 30 30 31 31 31 33 34 36 38 40 41 42 42 42 42 42 43 43 45 46 48 50 51 52 54 56 58 59 59 59 58
5 5 5 6 7 8 9 11 14 16 18 19 21 21 22 21 21 21 22 23 24 26 27 29 30 31 32 32 32 32 31 30 29 28 27 25 23 22 21 21 20 20 20 21 21 22 23 24 25 26 26 27 28 28 29 30 31 31 32 33 35 37 39 40 41 41 41 41 41 42 42 43 44 46 48 50 52 54 56 58 60 61 61 60 59 59
5 5 6 7 9 10 12 15 17 19 21 22 22 22 22 21 22 23 24 25 27 28 29 30 30 30 30 29 28 27 26 24 23 21 20 20 19 19 20 20 21 22 22 23 23 24 24 25 25 26 26 26 27 27 27 28 29 31 32 34 36 38 39 40 41 41 41 41 41 42 43 44 46 48 51 53 55 58 60 61 62 62 61 60 60 59
6 6 7 9 11 14 16 18 20 21 22 22 22 22 21 22 23 24 26 27 28 28 28 28 27 26 25 23 22 21 20 18 17 17 17 18 19 20 21 23 24 25 25 25 25 24 24 24 24 24 24 25 25 25 26 27 28 30 32 34 36 37 38 39 40 40 40 41 42 43 45 47 49 52 55 58 60 62 63 63 63 62 61 61 58 54
7 8 10 12 14 17 19 21 22 22 22 22 22 22 22 23 24 26 26 26 26 25 24 23 21 19 18 17 16 15 15 15 16 17 19 21 23 24 25 25 26 26 26 25 24 24 23 23 22 22 22 22 23 23 24 25 27 28 31 33 34 36 37 38 39 41 42 43 45 46 48 51 54 58 60 62 63 64 63 63 63 62 60 56 50 44
8 10 12 15 18 20 21 22 22 22 22 22 22 23 24 25 25 25 25 24 22 20 19 17 15 14 13 12 13 14 15 17 18 21 23 25 26 26 26 26 27 26 26 25 24 23 22 22 21 21 21 21 21 22 23 24 26 28 30 32 34 36 38 40 42 43 45 47 49 51 54 58 61 63 65 65 64 64 63 63 61 58 52 45 40 39
10 13 16 18 20 21 22 22 22 22 22 22 23 24 25 25 24 23 22 19 17 15 14 12 12 11 11 12 14 16 19 21 23 26 27 28 28 27 27 27 27 27 27 25 24 23 23 22 22 21 21 21 21 22 23 25 26 28 31 34 36 39 41 43 45 48 50 52 55 58 61 64 65 66 65 65 64 63 62 58 52 46 41 40 43 47
13 16 18 20 21 22 22 22 22 22 23 24 25 25 25 24 22 20 18 15 13 12 11 11 11 12 14 16 19 21 25 26 28 28 28 28 28 28 28 29 30 30 29 27 26 25 25 25 25 24 23 23 23 24 25 27 29 32 35 38 41 43 46 48 51 54 57 60 62 65 67 67 67 66 65 64 62 59 54 47 42 41 44 50 55 60
16 18 20 21 22 22 22 22 22 23 24 25 25 24 23 21 18 16 14 12 11 11 11 12 14 17 19 22 25 27 29 30 30 29 29 29 29 30 31 33 34 34 33 31 30 29 30 30 30 30 29 29 29 29 31 33 36 38 42 44 47 50 53 56 59 62 64 66 67 68 68 66 65 64 62 58 52 46 41 42 47 53 59 63 66 68
18 20 21 22 22 22 22 23 24 25 26 25 24 22 20 17 15 13 12 11 11 12 14 17 20 23 26 28 30 31 32 31 31 30 30 31 32 33 34 36 37 38 38 37 35 35 35 37 38 37 37 37 37 38 40 42 44 47 50 53 56 59 61 64 66 67 68 68 68 67 66 64 61 56 51 45 43 43 48 55 61 66 69 70 70 70
20 21 22 22 22 22 23 24 25 26 25 24 22 19 17 15 13 12 11 12 13 16 19 23 26 28 31 32 32 32 32 32 31 31 32 33 35 36 37 39 41 43 44 43 42 41 41 44 45 45 45 45 46 47 49 51 53 55 58 61 63 65 67 68 68 68 68 67 66 63 60 55 50 45 42 44 50 57 64 68 70 71 71 71 71 71
21 22 22 22 22 23 24 25 26 25 24 21 19 17 15 13 12 12 12 15 18 21 26 28 30 32 32 32 31 31 32 32 32 33 34 35 37 38 39 41 43 45 47 48 48 47 47 48 50 51 51 52 53 54 56 58 60 62 64 66 67 68 68 68 68 67 65 62 58 53 47 43 42 45 51 59 65 68 70 71 72 72 72 72 71 71
21 22 22 22 23 24 26 26 26 24 22 19 17 15 13 12 12 13 15 19 22 26 30 32 32 32 30 29 28 28 30 31 32 32 34 35 37 38 40 42 43 45 47 49 50 51 51 51 52 53 55 56 57 58 60 61 63 65 66 67 67 67 66 65 63 60 55 50 45 42 42 46 52 59 65 69 70 71 72 72 72 73 73 72 71 71
21 22 22 22 24 25 26 26 25 22 20 17 15 13 12 11 12 15 18 22 26 29 32 32 31 29 26 25 24 25 26 28 29 30 32 33 35 36 38 41 42 44 46 48 50 51 52 53 53 54 56 57 59 60 61 63 64 64 65 64 64 62 59 55 51 46 42 40 41 45 52 60 66 69 70 71 71 72 72 73 73 73 73 72 71 70
21 22 22 23 25 26 27 26 23 20 18 16 14 12 11 11 13 16 20 23 26 29 30 29 27 25 22 21 21 22 23 24 26 27 28 30 31 33 35 38 40 42 43 45 47 49 51 52 53 53 55 56 58 59 60 60 60 60 58 56 53 50 46 41 38 37 39 46 53 60 65 68 70 70 71 72 72 73 73 73 74 73 73 72 71 71
21 22 23 24 26 27 27 25 22 19 17 15 13 12 11 11 13 16 19 22 24 25 25 24 22 20 19 18 19 19 19 20 21 22 23 25 26 28 31 33 36 38 39 41 43 45 46 47 49 50 51 51 52 53 52 52 50 49 46 43 39 36 34 35 39 44 52 59 64 67 69 69 70 71 72 73 73 74 74 74 74 74 73 73 73 72
22 22 23 26 27 28 26 23 20 18 16 14 13 11 11 11 13 15 17 19 20 20 20 18 17 16 15 16 16 16 16 17 17 18 19 20 21 23 25 27 30 32 34 35 37 38 39 40 41 42 42 42 42 41 40 39 37 35 33 31 31 33 36 43 51 58 63 66 67 67 68 69 71 72 73 74 74 74 74 74 74 74 74 74 74 74
22 23 24 27 28 28 26 22 19 17 16 14 13 12 11 11 12 13 14 15 16 16 15 14 14 13 13 13 13 13 13 13 14 14 15 16 17 18 19 21 23 25 26 27 28 29 30 31 31 31 31 31 30 29 28 27 27 27 28 31 36 42 50 57 62 65 66 66 66 67 69 70 72 73 74 74 74 74 74 74 74 74 74 74 74 74
22 24 25 28 28 28 25 22 19 17 16 15 14 12 11 11 11 11 12 12 12 12 12 12 12 12 12 11 11 11 11 11 12 12 12 13 13 14 15 16 17 19 20 20 21 21 21 22 22 21 21 21 21 21 22 24 27 30 35 42 49 56 62 64 65 65 65 65 66 68 70 71 72 73 73 74 74 74 74 74 73 73 72 72 72 71
23 24 26 28 29 27 24 21 19 18 17 16 15 14 13 12 11 11 11 11 11 11 10 10 11 11 11 11 11 11 11 11 11 11 11 11 12 12 12 13 13 14 15 15 15 15 16 16 16 17 17 18 19 21 25 30 36 42 49 55 60 63 65 64 64 64 64 65 67 69 71 72 72 73 73 73 72 72 71 71 70 69 69 68 68 67
23 25 27 29 29 28 24 21 19 18 18 17 17 16 15 14 13 13 12 12 11 11 11 11 11 11 11 11 11 11 11 11 11 11 11 11 11 11 12 12 12 12 13 13 13 13 13 14 15 16 18 20 23 27 33 40 47 53 58 61 62 62 62 62 62 63 65 67 68 70 71 71 72 71 71 70 69 68 68 67 66 66 65 65 65 65
24 25 27 29 29 28 25 22 20 19 18 19 19 18 18 17 17 16 15 14 14 13 13 13 12 12 12 12 12 12 13 13 12 12 12 12 12 12 12 13 13 13 13 13 13 14 14 16 17 19 22 25 29 35 41 48 54 58 60 61 60 60 60 61 62 64 66 68 69 70 70 70 70 69 68 68 67 66 65 65 65 64 65 65 65 65
24 25 27 30 30 29 26 22 20 19 19 20 20 20 20 20 19 19 18 17 17 16 16 15 15 15 14 14 15 15 15 15 15 14 14 14 14 14 14 14 14 15 15 15 15 16 17 19 21 23 26 30 35 41 46 51 55 57 58 58 59 59 60 62 64 66 67 68 69 69 69 68 68 67 67 66 65 65 64 65 65 65 66 66 67 67
24 25 28 30 31 30 27 24 21 20 19 20 20 21 21 21 22 21 21 20 20 19 18 18 17 17 17 17 17 17 17 17 17 17 17 16 16 15 15 15 16 17 17 18 18 19 20 22 25 27 31 35 40 44 48 52 54 56 57 58 59 60 62 64 65 67 67 68 67 67 67 67 67 66 65 65 64 64 64 65 66 67 68 68 69 69
24 26 28 30 31 30 28 25 23 21 20 20 20 20 21 22 22 22 23 23 23 22 22 21 20 20 19 19 20 20 20 20 20 20 19 19 18 18 17 17 17 18 19 20 21 22 23 25 27 31 35 39 43 46 49 52 54 56 57 59 61 62 64 65 66 67 67 67 67 66 66 66 65 65 64 64 64 64 65 67 68 69 69 70 70 71
24 26 28 30 31 31 30 28 25 23 21 20 20 20 20 21 21 22 23 24 24 25 25 25 24 23 23 23 23 23 23 23 23 23 23 22 22 21 21 20 19 20 20 21 23 24 26 27 30 32 36 40 43 46 49 52 54 56 58 60 62 64 65 66 67 67 67 67 67 67 66 65 64 63 63 63 64 65 66 68 69 70 71 71 71 72
25 27 29 31 32 32 32 31 28 26 24 23 21 21 20 20 21 21 22 23 25 27 28 28 28 28 27 26 26 26 26 26 26 27 26 26 26 25 24 23 23 22 22 23 24 26 28 30 32 34 36 39 43 46 48 51 54 56 58 61 63 64 65 66 67 68 68 68 68 67 67 65 64 62 62 63 65 66 68 69 71 71 72 72 72 71
26 28 30 32 33 33 34 33 31 30 28 26 25 23 23 22 22 22 22 24 26 28 30 32 33 33 32 31 30 30 29 29 29 29 30 29 29 29 28 27 27 26 25 25 26 27 29 31 33 35 37 39 42 45 47 51 54 57 59 62 64 65 66 67 68 69 69 68 68 67 66 65 63 62 63 65 67 69 70 71 72 72 73 72 70 68
27 29 32 33 34 34 34 34 34 33 31 30 28 27 26 26 25 25 25 26 28 30 33 35 36 37 37 37 36 35 34 33 33 32 32 32 32 32 32 31 31 30 29 29 29 29 31 32 34 36 38 41 43 45 48 50 54 58 61 63 65 66 67 68 68 68 68 67 67 66 66 64 63 63 64 66 68 70 72 72 72 72 71 68 66 64
28 31 33 35 35 35 35 35 35 35 34 33 32 31 31 30 30 30 29 30 32 33 35 38 39 40 41 41 41 40 39 38 37 36 35 35 35 35 35 35 35 34 33 33 33 33 34 35 36 37 40 42 45 48 50 52 55 59 62 64 65 67 68 68 68 67 66 66 65 65 64 63 63 64 66 68 70 72 72 73 72 71 68 65 64 64
28 32 35 36 36 36 36 36 36 36 36 35 35 35 35 35 35 35 35 35 36 37 38 40 41 42 43 44 44 44 43 42 41 40 39 39 38 38 38 38 38 37 37 36 36 36 37 38 39 41 42 45 47 50 52 55 57 60 63 64 65 66 67 67 67 66 65 65 64 64 64 63 64 65 67 70 72 73 73 72 71 68 65 64 64 65
28 32 35 37 37 37 37 37 37 37 37 37 36 37 37 38 39 39 39 39 39 39 40 40 40 40 41 42 43 44 45 45 45 44 43 43 42 42 41 41 41 41 41 40 40 40 40 42 43 44 45 48 51 53 55 57 60 61 63 64 65 65 66 66 66 66 65 65 64 64 64 64 66 67 69 71 73 73 73 71 68 65 64 64 64 65
29 33 36 38 38 38 37 37 37 37 37 37 37 37 38 40 41 41 41 41 40 39 38 37 36 35 36 37 39 41 43 44 46 47 47 46 45 45 44 44 44 45 45 45 44 44 45 46 47 48 49 51 54 57 58 60 61 63 64 64 64 65 65 66 66 66 66 65 65 64 64 66 68 70 71 72 73 73 73 69 67 64 64 65 65 66
Wind_Speed
67 68 70 71 72 73 74 74 75 76 77 78 78 78 79 80 81 81 82 83 84 85 86 87 88 88 88 89 89 89 90 90 90 91 91 91 92 92 92 93 93 94 94 95 95 95 95 96 95 95 95 95 95 94 94 94 93 93 93 92 92 91 91 90 90 89 88 87 87 86 85 84 83 82 82 81 80 80 79 78 78 77 76 76 75 74
69 70 71 72 73 74 75 76 77 77 78 79 80 80 81 82 82 83 84 85 86 87 87 88 89 89 90 90 90 90 91 91 92 92 92 93 93 93 94 94 94 94 95 95 95 95 95 94 94 94 93 92 92 91 91 90 89 89 88 87 86 85 85 84 83 82 81 80 79 78 77 76 75 74 73 72 72 71 70 70 69 69 68 67 67 66
70 72 73 74 74 75 76 78 79 80 80 81 82 83 83 84 85 86 87 88 89 89 90 90 91 91 91 92 92 92 93 93 93 93 94 94 94 94 94 94 94 94 93 93 93 92 91 91 90 89 88 87 86 85 84 83 82 81 80 79 78 78 77 75 74 73 72 71 70 68 67 67 66 65 64 64 63 62 62 61 61 60 60 59 59 58
71 72 74 75 76 76 77 79 80 81 83 84 85 86 87 88 88 89 90 90 91 92 92 93 93 93 94 94 94 95 95 95 95 95 94 94 94 93 93 92 92 91 90 89 88 87 86 85 84 83 81 80 79 78 77 75 74 73 72 71 70 69 68 66 65 64 63 62 61 60 59 58 58 57 56 56 55 55 54 54 53 53 53 52 52 52
72 73 75 76 77 78 79 81 82 84 85 87 88 89 90 91 91 92 93 93 93 93 94 95 95 95 96 96 96 96 96 96 95 95 94 93 92 91 90 89 87 86 84 83 82 80 79 78 76 75 74 73 71 70 69 67 66 65 64 63 62 61 60 59 58 57 56 55 54 53 53 52 51 51 50 50 49 49 48 48 48 47 47 47 47 47
74 75 76 77 79 80 82 83 85 86 88 89 90 91 92 93 93 94 95 95 95 95 96 96 96 97 97 97 97 96 95 94 93 92 90 89 87 86 84 82 81 79 78 76 75 73 72 70 69 68 66 65 64 63 62 61 60 59 58 57 56 55 54 53 52 52 51 50 50 49 48 48 47 47 46 46 45 45 44 44 44 44 44 44 44 44
75 77 78 79 81 82 84 85 87 88 90 91 93 94 94 95 95 96 96 96 97 97 97 97 97 96 95 95 94 93 91 89 87 85 83 82 80 78 76 74 72 71 69 68 67 65 64 63 62 61 60 59 58 57 56 55 55 54 54 53 52 51 50 49 49 48 48 47 47 46 45 45 44 44 44 43 43 42 42 42 42 42 42 42 42 42
77 79 80 82 83 85 87 89 90 91 92 93 95 96 97 97 98 97 97 97 97 96 96 95 94 93 91 89 87 85 83 81 79 77 74 72 70 68 66 65 64 63 62 61 60 59 59 58 57 56 56 55 54 54 53 52 51 51 50 50 49 48 48 47 47 46 46 45 44 44 44 43 43 42 42 41 41 41 40 40 40 40 40 40 40 40
79 81 83 85 86 88 90 92 93 95 95 96 96 97 98 98 98 98 98 96 95 93 91 90 88 86 84 81 78 76 74 72 69 67 65 63 61 60 59 58 57 57 57 56 56 55 55 54 54 53 53 52 52 51 50 50 49 48 48 47 47 46 46 45 44 44 44 43 43 42 42 41 41 40 40 40 39 39 39 38 38 38 38 38 39 39
82 84 86 88 89 91 92 94 96 97 98 98 98 98 98 97 96 96 95 93 91 88 84 81 79 76 74 72 69 66 63 62 60 59 57 56 55 55 54 54 54 54 54 54 53 53 53 52 52 51 51 50 50 49 49 48 47 47 46 45 45 44 44 43 43 42 42 42 41 41 40 40 39 39 38 38 38 37 37 37 37 37 37 37 37 37
85 87 89 91 93 94 95 96 97 98 98 98 98 98 97 94 92 89 87 86 83 80 76 72 69 66 63 62 60 58 56 55 54 54 53 53 52 52 52 51 52 52 52 52 52 52 51 51 50 50 49 48 48 48 47 47 46 45 45 44 43 43 42 42 41 41 40 40 40 39 39 39 38 38 37 37 37 36 36 36 36 36 36 37 36 36
88 90 92 93 95 96 97 98 98 98 97 96 94 93 92 90 86 82 78 76 73 69 66 63 60 57 55 54 54 53 53 52 51 51 51 51 51 50 50 50 50 50 51 51 51 51 51 50 50 49 48 47 47 47 47 46 46 45 44 43 43 42 41 41 41 40 40 39 39 39 38 38 37 37 37 36 36 36 36 36 36 36 36 36 36 35
91 93 94 95 96 97 97 97 96 96 94 92 89 87 84 82 79 74 70 66 63 59 56 54 53 52 51 50 51 51 51 51 51 50 50 50 50 50 50 50 50 50 50 50 50 50 50 50 50 49 48 47 47 46 46 46 46 45 44 43 43 42 42 41 40 40 39 39 39 38 38 37 37 37 36 36 36 35 35 35 35 35 35 35 35 34
93 95 96 96 97 96 96 94 93 91 89 87 83 80 77 73 69 64 60 57 54 52 50 48 48 49 49 50 50 50 50 50 50 50 50 50 51 51 50 50 50 50 50 50 50 50 50 50 50 50 49 48 48 47 47 47 46 46 45 44 43 42 42 41 41 40 40 39 39 38 38 37 37 36 36 35 35 35 34 34 35 34 34 34 33 32
95 95 96 96 95 94 93 91 89 86 84 81 77 72 68 64 59 55 52 50 49 48 47 47 47 48 49 50 51 51 51 51 50 50 50 50 51 51 51 51 50 50 50 50 50 50 50 50 50 50 50 49 49 48 48 47 47 46 45 44 44 43 42 42 41 40 40 39 39 38 38 37 37 36 35 35 34 34 33 33 33 33 32 31 31 30
95 95 95 94 93 91 89 87 83 80 77 73 68 63 58 55 52 50 48 47 47 47 48 48 49 49 50 51 51 52 52 52 51 51 50 51 51 51 51 51 51 51 50 50 51 50 50 50 50 50 50 50 49 49 49 48 47 46 45 45 44 43 42 42 41 40 40 39 39 38 38 37 36 36 35 34 33 33 32 32 31 31 30 29 28 28
95 94 93 91 89 87 84 81 77 73 68 63 59 55 51 49 48 47 47 48 48 49 50 50 51 51 51 52 52 52 52 52 51 51 50 50 51 51 51 51 51 51 51 50 50 50 50 50 50 50 50 50 50 49 49 48 47 46 45 45 44 43 42 41 41 40 39 39 38 38 37 36 36 35 34 33 32 31 31 30 29 28 27 26 26 25
93 92 90 87 85 82 78 73 69 64 60 55 52 49 48 47 47 48 49 50 51 52 52 53 52 52 52 52 52 52 51 51 51 50 50 50 50 50 50 50 51 51 51 50 50 50 50 50 50 50 50 50 49 49 49 48 47 46 45 45 44 43 42 41 40 39 39 38 38 37 36 35 35 34 32 31 30 29 28 27 26 25 24 23 23 23
91 89 85 82 79 75 71 65 60 55 52 49 48 47 47 48 49 50 51 52 53 53 53 54 54 53 53 52 52 52 51 50 50 50 49 49 49 50 50 50 50 50 50 50 50 50 50 50 49 49 49 49 49 49 48 47 47 46 45 45 43 42 41 40 39 39 38 37 36 36 35 34 33 32 30 29 27 26 25 24 23 22 21 21 21 20
87 84 80 75 71 67 63 58 53 50 47 46 46 47 48 49 50 52 53 53 54 54 54 54 53 53 52 52 51 51 50 50 49 49 49 48 49 49 49 49 50 50 50 50 50 50 50 49 49 49 49 49 48 48 47 47 46 46 45 44 42 41 40 39 38 38 37 36 35 34 33 32 30 29 27 25 24 22 21 21 20 19 19 19 18 18
83 79 75 69 63 58 55 52 49 47 46 46 47 48 50 51 52 53 53 54 54 54 53 53 52 52 51 51 50 50 49 49 48 48 48 48 48 48 48 48 49 49 49 49 49 49 49 49 48 48 48 47 47 47 46 46 45 44 43 42 40 39 38 37 36 35 34 33 32 31 30 28 26 24 23 21 20 19 18 17 17 17 17 17 17 16
76 72 68 62 57 52 49 47 46 46 46 47 49 50 51 52 53 53 53 53 53 53 52 52 51 51 50 50 49 49 49 48 47 47 47 47 46 46 47 47 47 47 47 48 48 48 47 47 46 46 45 45 45 44 44 43 42 41 39 38 37 36 35 34 33 32 30 29 28 27 25 23 21 19 18 17 16 15 15 15 15 15 15 15 15 15
70 65 60 55 51 47 46 45 45 46 47 49 50 51 52 53 53 53 53 52 52 52 51 51 50 50 49 49 49 48 48 47 46 46 45 45 45 45 45 45 45 45 45 45 45 45 44 44 43 42 41 41 40 40 39 38 37 36 34 33 32 31 30 29 27 26 25 24 23 21 19 17 16 14 14 13 13 13 13 13 13 13 13 13 13 13
64 59 54 50 47 45 45 45 46 47 49 50 52 53 53 53 53 52 52 52 51 51 51 50 50 49 48 48 47 46 46 45 44 43 43 43 42 43 43 43 43 42 42 42 42 41 40 39 38 37 36 35 34 34 33 32 30 29 28 27 26 24 23 22 21 20 19 18 16 15 13 12 11 10 10 10 10 11 11 11 11 12 12 11 11 11
57 52 48 46 45 44 45 46 47 49 50 51 52 53 53 53 53 52 52 51 51 50 50 49 48 47 46 45 45 44 43 42 42 41 41 40 40 40 40 40 40 39 39 38 38 37 35 34 33 32 30 29 28 27 26 24 23 22 21 20 18 17 16 15 15 14 13 11 10 9 8 8 8 8 8 8 9 9 9 10 10 10 9 9 9 9
51 47 45 44 44 45 46 47 49 50 51 52 52 52 52 52 52 52 51 51 50 49 49 48 47 45 44 43 42 41 40 40 39 39 38 38 38 38 38 37 37 36 36 35 34 33 31 30 28 26 25 23 22 21 19 18 17 16 14 13 12 11 11 10 9 8 7 7 6 5 5 5 6 6 6 7 7 8 8 8 8 7 7 7 7 7
47 45 44 44 44 45 47 48 49 51 51 52 52 52 51 51 51 51 50 50 49 48 46 45 44 43 41 40 39 38 38 37 37 37 37 37 36 36 35 35 34 33 33 32 32 30 28 26 25 23 21 20 18 17 15 14 13 11 10 10 9 8 8 7 7 6 5 5 4 4 4 4 5 5 5 6 6 6 6 6 6 6 6 7 7 7
44 44 44 44 45 46 48 49 50 51 51 51 51 51 51 51 50 50 49 48 47 45 44 42 41 40 39 38 37 36 35 35 35 36 35 35 34 34 33 32 32 31 30 30 30 28 27 25 23 21 20 18 17 16 14 13 12 11 10 10 9 9 8 8 7 6 5 4 4 4 4 4 5 5 5 5 5 5 5 5 5 6 6 7 7 7
43 43 43 44 45 47 48 49 50 50 50 50 50 50 50 50 49 48 47 46 45 43 41 40 38 37 36 35 34 34 33 33 33 34 34 33 33 32 32 31 30 29 28 28 28 27 26 24 22 21 20 18 17 16 15 14 14 13 12 12 11 10 10 9 7 6 5 5 5 5 5 5 5 5 5 5 5 5 5 5 6 6 6 7 7 7
43 43 43 44 46 47 48 49 50 50 50 50 50 50 50 49 48 47 46 44 42 41 39 38 36 35 34 33 32 31 31 31 31 32 31 31 31 30 30 29 28 27 26 26 26 25 25 23 22 21 20 19 18 17 16 16 15 14 13 13 12 11 9 8 7 7 6 6 6 6 6 6 7 7 7 6 6 6 6 6 6 6 7 7 7 8
43 43 44 45 46 47 48 49 49 49 49 49 49 49 49 48 47 45 44 42 40 39 37 36 35 34 33 32 31 30 29 29 29 30 29 29 29 29 29 28 27 26 25 24 24 23 23 22 21 21 20 19 18 17 17 16 15 14 13 12 11 10 9 8 8 8 8 8 8 8 8 8 8 8 7 7 7 7 6 6 7 7 7 8 8 8
42 42 43 45 46 47 48 48 48 48 49 49 49 48 48 47 45 44 42 40 39 37 36 35 34 34 33 31 30 29 28 28 28 28 28 28 28 28 28 27 26 26 25 24 23 22 22 21 21 20 19 18 18 17 16 15 15 14 13 12 11 10 10 9 9 9 9 10 10 9 9 9 9 8 8 8 7 7 7 7 7 7 8 8 8 8
41 42 43 45 46 47 47 47 47 48 48 48 48 47 46 45 44 42 40 39 38 36 35 34 34 33 32 31 30 29 28 27 27 27 27 27 27 27 27 26 26 25 25 24 23 22 21 20 20 19 18 18 17 16 16 15 14 13 12 12 11 11 11 11 11 11 11 11 10 10 10 10 9 9 9 8 8 7 7 7 7 8 8 9 9 9
41 42 43 45 46 46 46 46 46 47 47 47 47 46 45 44 42 41 39 38 37 36 35 34 33 32 31 30 29 28 28 27 27 26 26 26 26 26 26 25 25 25 24 23 23 22 21 20 19 19 18 17 16 16 15 14 14 13 13 12 12 12 12 12 12 12 11 11 11 10 10 10 10 9 9 8 8 7 7 6 7 7 8 9 10 10
41 42 43 44 45 45 45 45 45 46 46 46 45 45 44 43 41 40 39 37 36 35 34 33 32 31 30 29 29 28 27 27 27 26 26 26 25 25 25 25 24 24 23 23 22 21 20 20 19 18 18 17 16 16 15 14 14 13 13 13 13 13 12 12 12 12 11 11 11 11 11 11 10 10 9 8 8 7 6 6 6 7 7 9 9 10
41 42 43 44 44 44 44 44 44 44 45 45 44 43 43 41 40 39 38 37 36 35 34 33 32 31 30 29 29 28 28 27 27 26 26 25 25 25 24 24 23 23 22 22 21 21 20 19 19 18 17 17 16 16 15 14 14 14 13 13 13 13 12 12 12 11 11 11 11 11 11 11 10 9 9 8 7 7 6 6 6 7 7 8 9 10
40 41 42 43 43 43 43 43 43 43 43 43 43 42 41 40 39 38 37 36 35 34 33 32 31 31 30 29 29 28 28 27 27 27 26 25 25 24 24 23 23 22 21 21 20 20 19 18 18 17 17 17 16 15 15 15 14 14 13 13 13 12 12 12 11 11 11 11 11 11 11 10 10 9 9 8 8 7 8 8 8 8 9 9 9 10
40 41 41 42 42 41 41 41 41 42 42 42 42 41 40 39 38 37 36 35 34 33 32 32 31 30 30 29 29 29 28 28 27 27 26 25 25 24 23 23 22 21 21 20 19 19 18 18 17 17 16 16 16 15 15 14 14 14 13 13 12 12 11 11 11 11 11 11 11 10 10 10 9 9 9 9 9 9 9 9 9 10 10 10 10 10
39 40 41 41 41 40 40 40 40 40 40 40 40 40 39 39 38 37 36 35 34 33 32 32 31 30 30 29 29 29 28 28 27 27 26 25 25 24 23 22 22 21 20 20 19 18 18 17 17 16 16 15 15 15 14 14 14 13 13 12 12 11 11 11 11 11 11 10 10 10 10 10 10 10 10 10 10 10 10 10 10 10 10 10 10 10
39 39 40 40 39 39 39 38 38 38 39 39 39 39 38 38 37 37 36 35 34 34 33 32 31 30 30 29 29 29 28 28 27 27 26 25 24 24 23 22 21 21 20 19 19 18 17 17 16 16 15 15 14 14 14 13 13 13 12 12 11 11 11 10 10 10 10 10 10 10 10 10 10 10 11 11 11 11 11 11 11 11 10 10 10 10
38 39 39 39 39 38 37 37 37 37 37 37 38 38 38 37 37 36 36 35 34 34 33 32 31 30 30 29 29 29 28 28 27 27 26 25 24 23 23 22 21 20 20 19 18 17 17 16 16 15 15 14 14 14 13 13 13 12 12 11 11 11 10 10 10 10 10 10 10 10 10 10 11 11 12 12 12 12 12 12 12 12 12 12 12 11
37 38 38 38 38 37 37 36 36 36 36 36 36 37 37 36 36 36 35 35 34 33 32 32 31 30 29 29 28 28 28 28 27 26 26 25 24 23 22 21 21 20 19 19 18 17 17 16 15 15 14 14 13 13 13 12 12 12 12 11 11 11 10 10 10 10 10 10 10 10 10 11 11 12 12 12 13 13 13 14 14 14 15 15 14 14
37 37 38 38 37 37 36 36 35 35 35 35 36 36 36 36 36 35 35 34 34 33 32 31 30 30 29 28 28 27 27 27 27 26 25 25 24 23 22 21 20 20 19 18 18 17 16 16 15 14 14 14 13 13 12 12 12 12 11 11 11 11 11 10 10 10 10 10 10 11 11 11 12 12 12 12 13 14 14 15 16 16 17 16 16 15
37 37 37 37 37 36 36 35 35 35 35 35 35 35 36 36 36 35 35 34 34 33 32 31 30 29 28 28 27 27 26 26 26 25 25 24 23 23 22 21 20 19 19 18 17 17 16 15 15 14 14 13 13 12 12 12 12 11 11 11 11 11 11 11 10 10 10 10 11 11 12 12 12 12 12 13 14 15 16 17 17 17 17 17 16 15
36 37 37 37 37 37 36 36 35 35 35 35 35 35 35 36 36 35 35 34 34 33 32 31 31 30 28 28 27 26 26 25 25 24 24 23 23 22 21 20 20 19 18 17 17 16 15 15 14 14 13 13 12 12 12 12 11 11 11 11 11 11 11 11 11 11 11 11 11 12 12 12 12 13 13 15 16 17 18 18 18 17 17 16 15 14
36 36 37 37 37 37 36 36 35 35 35 35 35 35 36 36 36 36 35 35 34 33 33 32 31 30 29 28 27 26 25 24 24 23 23 22 22 21 21 20 19 19 18 17 16 15 15 14 14 13 13 12 12 12 12 11 11 11 11 11 11 11 11 11 11 11 11 11 11 12 12 12 13 14 15 16 17 18 18 18 17 16 16 15 15 15
35 36 36 36 37 37 36 36 36 35 35 35 35 35 36 36 36 36 36 35 35 34 33 32 31 30 29 28 27 26 25 24 23 23 22 21 21 20 20 19 19 18 18 17 16 15 14 14 13 13 12 12 11 11 11 11 11 11 11 11 11 11 11 11 11 11 11 11 11 12 12 12 13 15 16 17 18 18 18 17 16 15 15 15 15 15
34 35 35 36 36 36 36 36 36 36 36 35 35 35 36 36 36 35 35 35 35 34 33 32 31 30 29 28 27 26 25 24 23 22 22 21 20 19 19 19 18 18 17 17 16 15 14 13 13 12 12 12 11 11 11 11 10 10 10 10 10 10 10 10 10 10 11 11 11 11 12 13 14 16 17 17 17 17 17 16 15 15 14 15 16 18
33 34 35 35 36 36 36 36 36 36 36 36 36 36 35 35 35 35 35 35 34 34 33 32 31 30 29 28 27 26 25 24 23 22 21 20 20 19 18 18 18 17 17 16 16 15 14 14 13 12 12 11 11 10 10 10 10 10 10 10 10 10 10 10 10 10 10 10 10 11 12 13 15 16 17 17 16 16 15 15 14 14 15 17 19 21
33 33 34 35 35 35 36 36 36 36 36 36 36 35 35 35 35 35 34 34 34 33 33 32 31 30 29 28 27 26 25 24 23 22 21 20 19 18 18 17 17 17 16 16 16 15 15 14 13 13 12 11 11 10 10 10 10 10 10 10 10 10 9 9 9 9 10 10 10 11 13 15 16 17 16 16 15 15 15 14 15 16 18 20 22 24
32 32 33 34 34 35 35 35 35 36 36 36 35 35 35 35 34 34 34 33 33 33 32 32 31 30 29 28 27 26 25 24 23 21 20 20 19 18 18 17 17 16 16 16 15 15 15 14 13 13 12 12 11 10 10 10 10 10 10 10 10 10 9 9 9 9 9 9 10 11 13 15 16 16 15 15 15 14 14 15 16 18 20 22 24 26
Wind_Direction
308 308 307 307 306 306 305 305 304 304 303 303 303 302 302 301 301 301 300 300 299 299 298 298 297 297 296 296 296 295 295 294 294 293 293 292 292 292 291 291 290 290 289 289 289 289 289 289 289 288 288 288 288 288 288 288 288 287 287 287 287 287 287 287 286 286 286 286 286 285 285 285 284 284 284 283 283 283 282 282 282 282 281 281 281 280
308 308 307 307 306 306 306 305 305 304 303 303 303 302 302 301 301 300 300 299 299 298 297 297 297 296 296 295 295 294 294 294 293 293 293 292 292 291 291 291 290 290 290 290 289 289 289 289 289 289 289 289 289 289 289 289 289 289 288 288 288 288 288 288 287 287 287 287 286 286 286 285 285 284 284 284 283 283 283 282 282 282 281 281 281 280
308 308 307 307 307 306 306 305 305 304 304 303 303 302 302 301 301 300 299 299 298 297 297 296 296 295 295 294 294 294 293 293 293 292 292 292 292 291 291 291 290 290 290 290 290 290 290 290 290 290 290 290 290 290 290 290 290 289 289 289 289 289 289 288 288 288 288 287 287 287 286 286 286 285 285 284 284 284 283 283 282 282 282 281 281 280
308 308 307 307 307 306 306 305 305 304 304 304 303 303 302 301 301 300 299 298 298 297 297 296 295 295 294 294 293 293 293 292 292 292 292 291 291 291 291 291 291 291 291 291 291 291 290 290 290 291 291 291 291 291 290 291 290 290 290 290 290 290 290 289 289 289 289 289 288 288 288 287 287 286 286 285 285 284 284 283 283 282 282 281 281 281
309 308 308 307 307 306 306 306 305 305 304 304 303 303 302 301 301 300 299 298 298 297 297 296 296 295 294 294 293 293 293 292 292 292 292 291 291 291 291 291 291 291 291 291 291 291 291 291 291 291 291 291 291 291 291 291 291 291 291 291 291 291 291 291 291 290 290 290 290 289 289 288 288 287 287 286 286 285 285 284 283 283 282 282 282 281
309 308 308 307 307 307 306 306 305 305 304 304 303 302 302 301 300 300 299 298 298 297 297 296 296 295 295 294 294 294 294 293 293 293 293 293 293 293 293 292 292 292 292 292 292 292 292 292 292 292 292 292 292 292 292 292 292 292 292 292 292 292 292 292 292 291 291 291 290 290 289 289 288 288 287 287 286 286 285 284 284 283 283 282 282 281
309 309 308 308 307 307 307 306 305 305 304 303 303 302 301 300 300 299 299 298 298 297 297 297 296 296 296 295 295 295 295 295 295 295 295 295 295 295 295 294 294 294 294 294 294 294 294 294 294 294 294 294 293 293 293 293 293 293 293 293 293 293 293 292 292 291 291 290 290 290 289 289 288 288 287 287 286 286 285 285 284 284 283 283 282 282
309 309 309 308 308 307 307 306 305 304 304 303 302 301 301 300 300 299 299 298 298 298 298 298 297 297 297 297 297 297 297 297 297 297 297 297 297 297 297 297 297 297 297 297 296 296 296 296 296 296 295 295 295 294 294 294 294 293 293 293 293 293 292 292 291 291 291 290 290 290 289 289 288 288 287 287 286 286 286 285 284 284 283 283 282 282
310 309 309 309 308 307 307 306 305 304 304 303 302 301 301 301 301 300 300 300 299 299 299 299 299 299 299 299 299 299 299 300 300 300 300 300 300 300 300 300 299 299 299 298 298 298 298 297 297 297 297 296 296 295 295 295 294 293 293 293 293 292 292 292 291 291 290 290 290 289 289 289 288 288 288 287 287 286 286 285 285 284 284 283 282 282
310 310 310 309 309 308 307 306 305 305 304 303 303 302 302 302 302 301 301 301 301 301 301 301 301 301 301 302 302 302 303 303 303 303 303 303 303 303 302 302 301 301 300 300 299 299 299 298 298 298 298 297 297 296 296 295 294 294 293 293 293 292 292 291 291 291 291 290 290 290 289 289 289 288 288 288 287 287 286 286 285 285 284 283 283 283
311 311 310 310 309 308 307 306 305 305 305 304 304 304 303 303 303 303 303 303 303 303 304 304 304 304 304 305 305 305 306 306 306 306 306 306 305 305 304 303 302 302 301 301 301 300 300 299 299 299 298 298 297 297 296 295 295 294 294 293 293 292 292 292 291 291 291 291 290 290 290 289 289 289 289 288 288 287 287 286 285 285 284 283 283 283
312 311 311 310 309 308 308 307 306 306 305 305 305 305 305 305 305 305 305 305 305 306 306 307 307 308 308 308 308 308 308 308 308 308 308 307 306 305 305 304 303 303 302 302 302 301 301 300 300 299 299 298 298 297 296 295 295 294 294 293 293 292 292 292 291 291 291 291 291 290 290 290 290 290 289 289 288 288 287 286 285 285 284 284 283 284
312 312 311 310 309 308 308 307 307 307 307 306 306 306 306 306 307 307 308 308 308 309 310 310 310 311 311 310 310 309 309 309 309 309 308 308 307 306 305 304 304 303 303 303 302 302 301 301 300 300 300 299 298 296 296 295 294 294 294 293 293 293 292 292 292 291 291 291 291 291 290 290 290 290 290 289 289 288 287 286 285 284 284 284 284 284
313 312 311 310 310 309 309 308 308 308 308 308 308 308 308 308 309 310 310 311 312 312 313 313 313 312 312 311 311 310 309 309 309 309 309 308 307 306 305 305 305 304 304 303 302 302 301 301 301 300 300 299 297 296 295 294 294 294 293 293 293 292 292 292 291 291 291 291 291 291 291 290 290 290 290 289 289 288 287 286 285 284 284 284 284 285
313 312 311 311 310 310 310 310 310 309 310 310 310 311 311 311 312 313 314 314 315 315 315 315 314 313 313 312 311 310 310 310 309 309 308 307 307 306 306 305 305 305 304 303 302 302 302 301 301 300 299 298 297 296 295 294 294 293 293 293 292 292 291 291 291 291 291 291 290 290 290 290 290 290 290 289 288 288 286 286 285 285 285 285 285 285
314 313 312 312 312 312 311 311 311 311 312 312 313 314 315 315 316 317 317 317 317 317 316 315 314 314 313 311 311 310 310 310 309 309 308 307 307 306 306 306 305 304 304 303 303 302 302 301 300 300 299 298 297 296 295 294 294 293 293 292 291 291 290 290 290 290 290 290 290 290 290 290 290 290 289 289 288 287 286 286 285 285 285 285 285 285
314 314 314 313 313 313 313 313 314 314 314 315 316 317 318 319 319 319 319 318 318 317 316 315 314 314 313 312 311 310 310 310 309 309 308 308 307 307 306 306 305 305 304 303 303 302 302 301 300 299 298 297 297 296 295 295 294 293 293 292 291 290 290 290 290 290 290 290 289 289 289 289 289 289 289 288 287 287 286 286 286 286 286 286 286 286
316 315 315 315 315 315 315 315 316 317 318 319 320 321 321 321 321 320 320 319 318 317 316 316 315 314 313 312 312 311 311 311 310 310 309 308 308 307 307 306 306 305 305 304 304 303 302 301 300 299 298 297 297 296 296 295 294 293 293 292 291 291 291 291 290 290 290 289 289 289 289 289 289 288 288 288 287 287 286 286 286 286 286 286 286 287
317 317 317 317 317 317 317 318 319 320 321 322 322 323 322 322 321 320 320 319 318 317 317 316 315 315 314 313 313 312 312 312 311 311 310 310 309 308 308 307 307 306 306 305 304 304 303 301 300 300 299 298 297 296 295 294 294 293 292 292 292 292 291 291 290 290 289 289 289 289 289 289 288 288 288 287 287 287 286 286 286 286 287 287 287 288
318 318 318 318 318 319 319 320 322 323 324 324 323 323 322 322 321 320 320 319 318 318 317 317 316 316 316 315 314 314 314 313 313 312 312 311 310 310 309 309 308 308 307 307 306 305 304 303 302 301 299 298 297 296 295 294 293 293 292 292 292 292 291 291 290 289 289 289 289 289 288 288 288 288 288 287 287 286 286 286 286 287 288 288 288 289
320 320 320 320 321 321 322 323 324 325 325 324 324 323 322 321 321 320 320 319 319 319 318 318 317 317 317 316 316 315 315 314 314 314 313 312 312 312 311 311 310 310 309 309 308 307 306 304 303 302 301 299 298 297 296 294 294 293 293 292 292 291 290 290 290 289 289 289 289 288 288 288 288 288 288 287 286 286 286 286 287 288 288 289 289 290
321 321 321 322 323 324 325 325 325 326 325 324 324 323 322 322 321 321 321 320 320 320 319 319 319 318 318 317 317 316 316 316 315 315 315 314 314 314 313 313 313 312 311 311 310 309 308 307 305 304 302 301 299 298 297 296 295 294 293 293 292 291 290 289 289 289 288 288 288 288 288 288 289 288 287 286 285 285 286 286 287 288 289 290 290 291
323 323 323 324 325 326 326 326 326 325 325 324 324 323 323 323 322 322 322 322 321 321 321 320 320 319 319 318 318 318 317 317 317 317 317 317 316 316 316 316 315 315 315 314 313 312 311 310 308 307 305 303 302 300 299 298 297 295 294 293 292 291 290 289 289 288 288 288 288 289 290 290 290 288 286 285 285 286 287 288 289 290 291 292 293 293
324 325 325 326 327 327 327 327 326 325 325 325 324 324 324 324 324 323 323 323 323 322 322 321 321 321 320 320 319 319 319 319 319 319 319 319 319 319 319 319 319 319 319 318 317 316 315 314 313 311 309 307 306 304 302 301 300 298 296 295 294 292 291 290 290 289 290 290 292 293 294 292 290 288 286 286 287 288 289 291 293 294 295 296 297 298
326 326 327 328 328 328 327 327 326 326 326 326 326 326 325 325 325 325 325 325 324 324 323 323 322 322 322 321 321 321 321 321 321 322 322 322 323 323 324 324 325 325 324 323 322 322 321 321 320 318 316 314 312 310 308 307 305 303 302 300 298 297 295 295 295 296 298 301 302 302 299 296 293 291 290 291 292 294 296 298 299 301 302 303 304 306
328 328 328 328 328 328 328 327 327 327 327 327 327 327 327 327 327 327 327 326 326 325 325 324 324 323 323 323 323 324 324 324 324 324 325 326 327 328 329 330 331 331 330 329 329 329 330 330 329 328 326 324 323 321 320 318 316 315 313 312 311 310 310 311 314 317 321 323 322 316 308 303 299 299 300 302 304 306 308 310 312 312 313 313 314 314
329 329 329 329 329 329 328 329 329 328 329 329 329 329 329 329 328 328 328 327 327 326 326 326 325 325 325 326 326 327 327 327 327 327 328 330 332 334 335 336 337 337 337 337 337 338 341 342 342 341 340 339 339 339 338 338 338 337 338 338 340 343 346 351 355 359 360 357 348 335 326 319 318 316 319 321 323 326 327 328 329 328 326 323 321 319
329 329 329 329 329 329 330 330 330 330 330 330 330 330 330 330 329 329 329 328 328 328 328 328 328 328 328 329 329 330 330 330 330 331 333 335 337 339 340 341 343 343 344 344 344 346 350 352 353 354 354 355 357 358 0 3 5 7 9 12 16 20 23 26 27 26 23 16 7 356 349 346 346 347 348 351 353 354 353 351 346 339 333 328 324 320
330 330 330 330 330 331 331 331 331 331 332 332 332 332 331 331 331 330 330 330 330 330 330 330 331 331 331 332 333 333 333 333 333 334 336 339 341 342 344 346 347 348 349 350 351 353 356 360 2 4 6 8 11 14 17 20 23 26 30 33 35 37 38 38 37 34 31 24 20 15 14 13 15 18 20 20 19 15 9 1 352 343 336 329 325 323
330 330 331 331 332 332 332 333 333 333 333 333 333 333 333 333 332 332 332 332 332 333 333 333 334 334 334 335 335 336 336 335 336 337 340 342 343 345 346 348 350 352 353 355 356 358 1 4 7 10 13 16 18 22 25 29 32 35 38 40 41 42 41 41 38 36 34 32 32 33 35 37 38 39 38 35 29 22 13 4 355 346 339 334 331 331
331 331 332 332 333 333 334 334 334 335 335 335 335 335 334 334 334 334 334 335 335 335 336 336 336 336 337 337 338 338 338 338 339 340 343 344 345 346 348 350 351 354 356 358 359 1 3 6 9 12 15 19 22 25 28 31 34 37 39 41 42 42 42 41 40 41 42 43 45 47 49 50 49 46 42 36 30 22 14 6 358 351 344 339 338 340
331 332 333 333 334 335 335 336 336 336 337 336 336 336 336 336 336 337 337 337 338 338 339 339 339 339 339 340 340 341 341 341 342 344 345 346 347 348 349 351 353 355 357 359 1 3 5 7 10 12 16 19 22 25 28 31 34 36 38 39 41 42 43 44 46 48 50 53 55 56 55 53 50 45 41 35 30 23 17 9 1 353 346 343 343 346
332 333 334 335 336 336 337 337 338 338 338 338 338 338 339 339 339 339 339 340 340 341 341 342 342 342 342 343 344 344 344 345 346 347 348 349 350 350 351 352 354 356 358 0 2 4 6 8 10 13 16 19 22 25 27 30 33 35 37 40 42 45 48 50 53 56 57 58 58 57 54 51 47 44 40 36 31 26 19 11 1 352 346 343 343 346
333 334 335 336 337 338 338 339 339 340 340 340 340 340 341 341 341 341 342 342 343 343 344 345 345 345 346 346 347 347 348 349 350 351 351 352 353 353 354 355 356 357 359 2 4 6 8 10 11 14 17 20 23 26 29 31 35 37 40 44 46 50 53 56 58 59 60 59 57 54 51 48 45 42 39 36 32 26 19 9 358 348 341 339 339 340
334 336 337 338 338 339 340 340 341 341 342 342 343 343 343 343 344 344 344 345 346 346 347 348 348 348 349 349 350 350 351 352 353 354 354 355 356 356 357 357 358 360 2 3 6 7 9 12 14 17 19 23 26 29 32 35 38 42 45 48 51 54 57 59 60 59 57 55 53 51 49 46 44 42 39 35 31 24 15 5 352 342 335 332 332 332
335 337 338 339 339 340 341 342 342 343 343 344 345 345 346 346 347 347 347 348 349 350 350 351 351 351 352 352 353 353 354 355 356 357 358 358 359 359 359 0 1 2 4 6 8 10 12 15 17 20 23 26 29 33 36 39 42 46 49 52 54 57 58 59 58 56 54 52 50 48 46 44 42 40 36 32 25 18 9 359 349 341 334 331 330 330
336 337 339 340 340 341 342 343 344 344 345 346 347 347 348 349 349 350 350 351 352 353 353 354 354 354 354 354 355 356 356 357 358 359 360 0 1 2 2 3 4 5 7 9 11 13 16 18 21 24 27 30 33 36 39 42 45 48 51 54 55 57 57 56 55 53 51 49 47 46 43 40 37 33 29 24 17 9 1 355 349 345 341 339 337 337
337 338 339 340 341 342 343 344 345 346 347 348 348 349 350 351 352 352 353 353 354 355 356 356 356 356 356 356 356 357 358 359 360 1 1 2 3 4 5 5 6 8 10 12 14 16 18 21 24 26 30 32 35 38 41 44 47 49 51 53 54 55 54 53 51 49 48 46 44 41 37 33 28 24 19 14 8 3 359 356 354 352 350 348 347 346
337 339 340 341 342 342 343 344 345 347 348 349 349 350 351 352 353 354 355 355 356 357 358 358 358 358 357 357 357 358 359 360 1 1 3 4 4 5 6 7 8 10 11 13 16 18 21 23 26 28 32 35 37 39 42 44 47 49 50 51 51 52 50 49 48 45 44 41 38 33 29 24 19 15 11 7 5 3 3 2 2 2 2 1 0 359
337 339 340 341 342 343 344 344 346 347 348 349 350 350 351 353 354 354 355 356 357 357 358 358 359 358 358 358 358 358 359 360 1 2 3 4 5 7 7 8 9 11 12 14 17 19 22 24 26 29 32 35 38 40 42 44 46 47 48 49 48 48 46 45 43 41 38 34 30 26 21 16 12 9 8 7 7 9 10 12 15 17 19 21 22 22
337 339 340 341 342 343 343 344 345 346 347 348 349 350 351 352 353 354 355 355 356 357 357 357 358 358 358 358 357 357 358 359 0 1 3 4 5 7 8 9 10 11 13 15 17 19 22 24 26 29 32 34 37 39 41 42 43 44 45 45 45 44 43 41 38 35 31 27 23 18 15 11 10 9 10 12 14 17 21 25 31 35 38 40 42 41
338 339 341 341 342 343 343 344 344 345 346 347 348 349 350 351 352 352 353 354 354 355 355 356 356 357 357 357 357 357 357 358 359 0 2 3 4 6 7 9 10 11 12 14 16 18 21 23 25 27 30 33 35 37 39 40 41 42 42 41 40 39 38 36 33 29 25 21 17 13 12 11 12 14 17 20 25 30 35 41 47 51 53 54 54 53
338 339 340 341 342 342 343 343 343 344 345 346 347 347 348 349 349 350 351 351 352 352 353 353 354 354 355 355 355 355 356 356 357 358 360 1 3 4 6 7 9 10 11 13 15 17 19 21 24 26 28 30 32 34 36 37 38 38 38 38 37 34 32 30 27 23 19 17 14 13 13 15 18 22 26 33 40 47 53 57 60 61 61 60 59 56
338 339 340 341 342 342 342 343 343 343 344 344 345 345 346 346 347 347 348 349 349 349 350 350 350 351 352 352 353 353 354 354 355 356 358 359 0 2 4 5 7 8 10 11 13 15 17 19 22 24 26 28 30 32 33 34 35 35 35 34 32 31 28 26 23 19 17 15 15 15 18 21 26 32 41 49 57 63 66 67 66 65 64 61 58 54
337 339 340 341 342 342 342 342 343 343 343 343 343 343 343 344 344 345 346 346 347 347 347 347 348 348 349 349 350 350 351 352 353 354 355 356 358 359 1 3 5 6 8 9 10 12 15 17 19 21 24 25 27 29 30 31 31 31 30 29 28 26 24 22 19 17 17 17 18 21 24 29 37 47 56 64 69 71 71 70 67 64 61 57 53 48
338 339 340 341 342 342 342 342 342 342 342 342 342 342 342 342 343 343 344 344 345 345 346 345 346 346 346 346 346 347 347 348 349 351 352 353 355 356 358 360 2 3 5 6 7 9 12 15 17 19 21 22 24 26 27 27 27 27 26 25 24 23 21 19 18 17 18 20 24 28 33 40 50 59 67 71 74 73 71 68 64 60 56 52 47 42
337 339 340 341 341 342 342 342 343 342 342 342 342 341 341 341 342 342 342 343 344 344 344 345 345 344 344 343 343 344 344 345 346 347 349 350 352 353 355 357 359 1 2 3 5 6 8 11 14 16 17 19 20 22 23 24 23 24 23 22 22 22 23 22 19 18 19 23 30 36 43 51 60 68 73 76 75 73 69 65 61 56 52 47 42 37
337 339 340 341 341 342 342 343 343 343 343 343 342 342 342 342 342 342 342 342 343 343 344 344 344 344 343 342 342 341 341 342 343 344 345 347 349 350 352 354 356 358 359 1 2 4 6 8 10 13 14 15 17 18 19 20 20 21 21 21 22 23 25 24 22 22 24 30 37 44 52 60 69 75 78 77 75 71 68 63 58 53 48 44 39 35
337 338 340 341 341 342 343 343 343 344 344 343 343 343 342 342 342 342 342 342 343 343 344 344 344 344 343 342 341 340 340 340 341 341 343 344 346 348 350 352 354 356 357 359 360 1 3 5 7 8 10 13 14 15 16 17 18 19 20 21 23 24 27 27 27 28 33 39 46 53 62 70 77 80 81 78 75 71 66 61 55 50 45 41 38 34
337 338 340 341 341 342 343 343 344 344 344 344 344 344 344 343 343 343 343 343 343 344 344 345 345 344 344 343 341 340 340 340 340 341 342 344 345 347 349 350 353 354 356 357 358 360 1 3 4 5 7 9 11 14 15 17 17 18 20 22 23 25 29 32 34 37 42 48 55 63 71 78 82 84 82 79 74 69 64 58 52 46 42 39 36 33
337 338 340 341 342 342 343 344 344 345 345 345 345 345 345 345 344 344 344 344 344 345 345 346 346 346 345 344 343 341 341 341 341 342 343 344 346 347 349 350 352 355 356 357 358 359 0 2 4 4 5 6 9 13 16 17 18 20 23 24 25 28 33 37 40 44 49 54 62 70 77 83 85 86 84 79 74 68 61 55 49 45 41 38 35 32